When you browse on this site, cookies collect data to enhance your experience and personalize the content and advertising you see.
Visit our Privacy Policy to learn more. By continuing to use the site, you agree to this use of cookies and data.
  • en Belgique
  • Liste des pays
  • À 7 jours
  • Température de l'eau
  • Carte satellitaire
  • Carte météo
  • Widgets météo
  • user-avatar
    Se connecter

    Météo par heure à Vvedenskoe

    Ce jour, 16 Juin, Dimanche

    Heure Température Précipitation Vent Pression Humidité
    00:00 +17°C° 0 mm 3 m/s 742 mmHg 96%
    01:00 +17°C° 0 mm 3 m/s 742 mmHg 96%
    02:00 +17°C° 0 mm 2 m/s 742 mmHg 98%
    03:00 +17°C° 0 mm 2 m/s 742 mmHg 97%
    04:00 +17°C° 0 mm 3 m/s 742 mmHg 96%
    05:00 +18°C° 0 mm 3 m/s 742 mmHg 95%
    06:00 +18°C° 0.1 mm 3 m/s 742 mmHg 93%
    07:00 +18°C° 0.1 mm 3 m/s 742 mmHg 91%
    08:00 +19°C° 0 mm 3 m/s 743 mmHg 92%
    09:00 +19°C° 0.1 mm 2 m/s 743 mmHg 86%
    10:00 +20°C° 0.1 mm 2 m/s 743 mmHg 81%
    11:00 +21°C° 0.1 mm 2 m/s 743 mmHg 75%
    12:00 +23°C° 0.1 mm 2 m/s 743 mmHg 71%
    13:00 +24°C° 0.1 mm 1 m/s 743 mmHg 67%
    14:00 +24°C° 0.1 mm 1 m/s 743 mmHg 62%
    15:00 +24°C° 0.3 mm 1 m/s 743 mmHg 66%
    16:00 +24°C° 0.3 mm 2 m/s 743 mmHg 69%
    17:00 +24°C° 0.3 mm 2 m/s 743 mmHg 72%
    18:00 +21°C° 0 mm 2 m/s 743 mmHg 78%
    19:00 +20°C° 0 mm 2 m/s 743 mmHg 83%
    20:00 +18°C° 0 mm 2 m/s 743 mmHg 88%
    21:00 +18°C° 0 mm 1 m/s 744 mmHg 89%
    22:00 +18°C° 0 mm 1 m/s 744 mmHg 90%
    23:00 +16°C° 0 mm 1 m/s 744 mmHg 91%

    Demain, 17 Juin, Lundi

    Heure Température Précipitation Vent Pression Humidité
    00:00 +16°C° 0 mm 1 m/s 744 mmHg 92%
    01:00 +15°C° 0 mm 1 m/s 744 mmHg 93%
    02:00 +15°C° 0 mm 1 m/s 744 mmHg 93%
    03:00 +15°C° 0 mm 1 m/s 744 mmHg 92%
    04:00 +16°C° 0 mm 1 m/s 744 mmHg 92%
    05:00 +16°C° 0 mm 1 m/s 744 mmHg 91%
    06:00 +19°C° 0 mm 1 m/s 744 mmHg 85%
    07:00 +20°C° 0 mm 1 m/s 745 mmHg 80%
    08:00 +22°C° 0 mm 1 m/s 745 mmHg 74%
    09:00 +23°C° 0 mm 1 m/s 745 mmHg 69%
    10:00 +24°C° 0 mm 1 m/s 745 mmHg 63%
    11:00 +25°C° 0 mm 1 m/s 745 mmHg 58%
    12:00 +25°C° 0 mm 1 m/s 745 mmHg 57%
    13:00 +26°C° 0 mm 1 m/s 745 mmHg 57%
    14:00 +26°C° 0 mm 1 m/s 744 mmHg 56%
    15:00 +26°C° 0 mm 1 m/s 744 mmHg 59%
    16:00 +25°C° 0 mm 1 m/s 744 mmHg 62%
    17:00 +25°C° 0 mm 2 m/s 744 mmHg 65%
    18:00 +24°C° 0 mm 1 m/s 744 mmHg 70%
    19:00 +22°C° 0 mm 1 m/s 744 mmHg 75%
    20:00 +20°C° 0 mm 1 m/s 744 mmHg 80%
    21:00 +19°C° 0 mm 1 m/s 744 mmHg 81%
    22:00 +19°C° 0 mm 1 m/s 744 mmHg 82%
    23:00 +18°C° 0 mm 1 m/s 744 mmHg 83%

    Après-demain, 18 Juin, Mardi

    Heure Température Précipitation Vent Pression Humidité
    00:00 +18°C° 0 mm 1 m/s 744 mmHg 85%
    01:00 +18°C° 0 mm 1 m/s 744 mmHg 86%
    02:00 +16°C° 0 mm 1 m/s 744 mmHg 88%
    03:00 +18°C° 0 mm 1 m/s 744 mmHg 87%
    04:00 +19°C° 0 mm 1 m/s 744 mmHg 87%
    05:00 +19°C° 0 mm 1 m/s 743 mmHg 86%
    06:00 +20°C° 0 mm 2 m/s 743 mmHg 82%
    07:00 +21°C° 0 mm 2 m/s 743 mmHg 78%
    08:00 +24°C° 0 mm 2 m/s 743 mmHg 73%
    09:00 +24°C° 0.2 mm 2 m/s 743 mmHg 71%
    10:00 +25°C° 0.2 mm 2 m/s 743 mmHg 69%
    11:00 +26°C° 0.2 mm 2 m/s 743 mmHg 67%
    12:00 +26°C° 0.5 mm 2 m/s 743 mmHg 69%
    13:00 +26°C° 0.5 mm 3 m/s 743 mmHg 71%
    14:00 +26°C° 0.5 mm 3 m/s 742 mmHg 74%
    15:00 +26°C° 0.5 mm 3 m/s 742 mmHg 76%
    16:00 +25°C° 0.5 mm 4 m/s 742 mmHg 79%
    17:00 +25°C° 0.5 mm 4 m/s 742 mmHg 82%
    18:00 +22°C° 0.1 mm 3 m/s 742 mmHg 86%
    19:00 +21°C° 0.1 mm 3 m/s 742 mmHg 90%
    20:00 +19°C° 0.1 mm 3 m/s 742 mmHg 94%
    21:00 +19°C° 0 mm 3 m/s 742 mmHg 94%
    22:00 +19°C° 0 mm 3 m/s 743 mmHg 94%
    23:00 +19°C° 0 mm 3 m/s 743 mmHg 94%

    19 Juin, Mercredi

    Heure Température Précipitation Vent Pression Humidité
    00:00 +18°C° 0 mm 3 m/s 743 mmHg 95%
    01:00 +17°C° 0 mm 3 m/s 743 mmHg 95%
    02:00 +17°C° 0 mm 3 m/s 743 mmHg 95%
    03:00 +17°C° 0 mm 3 m/s 743 mmHg 94%
    04:00 +17°C° 0 mm 3 m/s 744 mmHg 92%
    05:00 +17°C° 0 mm 3 m/s 744 mmHg 90%
    06:00 +19°C° 0 mm 3 m/s 744 mmHg 85%
    07:00 +21°C° 0 mm 3 m/s 744 mmHg 80%
    08:00 +22°C° 0 mm 3 m/s 745 mmHg 75%
    09:00 +24°C° 0 mm 3 m/s 745 mmHg 69%
    10:00 +25°C° 0 mm 3 m/s 745 mmHg 63%
    11:00 +27°C° 0 mm 3 m/s 745 mmHg 56%
    12:00 +27°C° 0 mm 3 m/s 745 mmHg 56%
    13:00 +27°C° 0 mm 3 m/s 745 mmHg 56%
    14:00 +27°C° 0 mm 3 m/s 745 mmHg 56%
    15:00 +27°C° 0 mm 3 m/s 745 mmHg 60%
    16:00 +26°C° 0 mm 3 m/s 745 mmHg 65%
    17:00 +26°C° 0 mm 3 m/s 745 mmHg 69%
    18:00 +24°C° 0 mm 3 m/s 745 mmHg 73%
    19:00 +21°C° 0 mm 3 m/s 745 mmHg 77%
    20:00 +19°C° 0 mm 2 m/s 745 mmHg 81%
    21:00 +18°C° 0 mm 2 m/s 745 mmHg 82%
    22:00 +18°C° 0 mm 2 m/s 746 mmHg 83%
    23:00 +18°C° 0 mm 1 m/s 746 mmHg 83%

    20 Juin, Jeudi

    Heure Température Précipitation Vent Pression Humidité
    00:00 +16°C° 0 mm 1 m/s 746 mmHg 85%
    01:00 +16°C° 0 mm 1 m/s 746 mmHg 87%
    02:00 +15°C° 0 mm 2 m/s 746 mmHg 88%
    03:00 +16°C° 0 mm 2 m/s 746 mmHg 88%
    04:00 +17°C° 0 mm 2 m/s 746 mmHg 87%
    05:00 +17°C° 0 mm 2 m/s 747 mmHg 87%
    06:00 +19°C° 0 mm 2 m/s 747 mmHg 81%
    07:00 +21°C° 0 mm 2 m/s 747 mmHg 75%
    08:00 +24°C° 0 mm 2 m/s 747 mmHg 69%
    09:00 +25°C° 0 mm 2 m/s 747 mmHg 65%
    10:00 +26°C° 0 mm 2 m/s 747 mmHg 60%
    11:00 +27°C° 0 mm 3 m/s 747 mmHg 55%
    12:00 +27°C° 0 mm 3 m/s 747 mmHg 54%
    13:00 +28°C° 0 mm 3 m/s 747 mmHg 52%
    14:00 +28°C° 0 mm 3 m/s 747 mmHg 51%
    15:00 +28°C° 0 mm 2 m/s 747 mmHg 56%
    16:00 +27°C° 0 mm 2 m/s 747 mmHg 60%
    17:00 +27°C° 0 mm 2 m/s 746 mmHg 64%
    18:00 +25°C° 0 mm 2 m/s 747 mmHg 68%
    19:00 +23°C° 0 mm 2 m/s 747 mmHg 71%
    20:00 +20°C° 0 mm 2 m/s 747 mmHg 75%
    21:00 +20°C° 0 mm 2 m/s 747 mmHg 78%
    22:00 +19°C° 0 mm 2 m/s 747 mmHg 81%
    23:00 +19°C° 0 mm 1 m/s 747 mmHg 84%

    21 Juin, Vendredi

    Heure Température Précipitation Vent Pression Humidité
    00:00 +19°C° 0 mm 1 m/s 747 mmHg 85%
    01:00 +19°C° 0 mm 1 m/s 747 mmHg 86%
    02:00 +18°C° 0 mm 1 m/s 747 mmHg 87%
    03:00 +19°C° 0 mm 1 m/s 747 mmHg 87%
    04:00 +19°C° 0 mm 1 m/s 747 mmHg 86%
    05:00 +20°C° 0 mm 1 m/s 748 mmHg 85%
    06:00 +20°C° 0 mm 2 m/s 748 mmHg 79%
    07:00 +23°C° 0 mm 2 m/s 748 mmHg 74%
    08:00 +25°C° 0 mm 2 m/s 748 mmHg 68%
    09:00 +26°C° 0 mm 2 m/s 748 mmHg 64%
    10:00 +27°C° 0 mm 2 m/s 748 mmHg 59%
    11:00 +28°C° 0 mm 3 m/s 748 mmHg 55%
    12:00 +28°C° 0 mm 2 m/s 748 mmHg 53%
    13:00 +28°C° 0 mm 2 m/s 748 mmHg 52%
    14:00 +29°C° 0 mm 2 m/s 748 mmHg 51%
    15:00 +29°C° 0 mm 2 m/s 747 mmHg 54%
    16:00 +28°C° 0 mm 2 m/s 747 mmHg 57%
    17:00 +28°C° 0 mm 1 m/s 747 mmHg 61%
    18:00 +26°C° 0 mm 1 m/s 747 mmHg 63%
    19:00 +24°C° 0 mm 1 m/s 747 mmHg 66%
    20:00 +22°C° 0 mm 1 m/s 747 mmHg 69%
    21:00 +22°C° 0 mm 1 m/s 747 mmHg 71%
    22:00 +21°C° 0 mm 1 m/s 747 mmHg 72%
    23:00 +20°C° 0 mm 1 m/s 748 mmHg 74%
    Voir plus